Location: Drocourt
(49.0571°N, 1.7669°E)
Time: 18:23:48
(UTC+00:00)

Okean 1-7 Rocket - Pass Details

Date: 09 February 2023
Orbit: 615 x 648 km, 82.5° (Epoch: 25 March)

Event Time Altitude Azimuth Distance (km) Brightness Sun altitude
Rises 18:17:55 0° 175° (S) 2,898 7.0 -12.7°
Reaches altitude 10° 18:20:09 10° 171° (S) 2,001 6.2 -13.1°
Maximum altitude 18:24:28 54° 95° (E) 774 3.7 -13.8°
Drops below altitude 10° 18:28:53 10° 18° (NNE) 2,038 6.0 -14.5°
Sets 18:31:10 0° 14° (NNE) 2,957 6.9 -14.9°
